Location: Bun
(42.9667°N, 0.1500°W)
Time: 04:33:21
(UTC+00:00)

Cosmos 2333 Rocket - Pass Details

Date: 03 February 2023
Orbit: 837 x 864 km, 70.8° (Epoch: 26 March)

Event Time Altitude Azimuth Distance (km) Brightness Sun altitude
Rises 18:09:52 0° 176° (S) 3,373 5.4 -10.3°
Reaches altitude 10° 18:12:30 10° 167° (SSE) 2,445 4.6 -10.8°
Maximum altitude 18:17:27 33° 104° (ESE) 1,384 2.9 -11.7°
Enters shadow 18:22:23 10° 43° (NE) 2,453 4.1 -12.5°
